Flag for Canada Weather past 2 weeks in Sherbrooke, Quebec, Canada

Now
0 °F

Clear.


Feels Like: 0 °F
Forecast: -9 / 26 °F
Wind: 2 mph from North

Location: Sherbrooke

Current Time: Jan 28, 2015 at 7:41:37 PM

Latest Report: Jan 28, 2015 at 7:00 PM


Visibility: 9 mi

Pressure: 30.26 "Hg

Humidity: 78%

Dew point: -6 °F

Location of SherbrookeLocation

Historic Weather in Sherbrooke — Graph

°F

Sherbrooke temperature yesterday

Maximum temperature yesterday: 7 °F (at 12:00 AM)
Minimum temperature yesterday: 3 °F (at 6:00 AM)
Average temperature yesterday: 6 °F

Past Weeks' High & Low Weather Summary

 TemperatureHumidityPressure
High43 °F (Jan 18, 4:00 PM)100% (Jan 18, 8:00 PM)30.76 "Hg (Jan 18, 8:00 PM)
Low-20 °F (Jan 14, 5:00 AM)47% (Jan 28, 4:00 PM)29.24 "Hg (Jan 25, 12:00 AM)
Average10 °F79%29.97 "Hg
* Reported Jan 13 6:00 PM — Jan 28 6:00 PM, Sherbrooke, Weather by CustomWeather, © 2014

Note: Actual official high and low records may vary slightly from our data, if they occured in-between our weather recording intervals... More about our weather records

Advertising

Sherbrooke weather history for previous 24 hours

 ConditionsComfort  
Time TempWeatherWind HumidityBarometerVisibility
6:00 PM
Jan 28
3 °FClear.3 mph72%30.23 "Hg9 mi
5:00 PM9 °FClear.3 mph56%30.20 "Hg9 mi
4:00 PM10 °FSunny.7 mph47%30.17 "Hg9 mi
3:00 PM10 °FSunny.10 mph52%30.14 "Hg9 mi
2:04 PM9 °FSunny.12 mph61%30.12 "Hg9 mi
1:00 PM10 °FLight snow. Sunny.17 mph56%30.09 "Hg1 mi
12:00 PM9 °FSunny.12 mph61%30.10 "Hg9 mi
11:00 AM9 °FOvercast.12 mph61%30.10 "Hg9 mi
10:02 AM7 °FPartly sunny.14 mph66%30.09 "Hg9 mi
9:00 AM5 °FLight snow. Partly sunny.13 mph78%30.08 "Hg9 mi
8:00 AM3 °FLight snow. Overcast.7 mph85%30.06 "Hg9 mi
7:00 AM3 °FLight snow. Mostly cloudy.12 mph85%30.02 "Hg9 mi
6:00 AM3 °FLight snow. Mostly cloudy.10 mph85%29.99 "Hg9 mi
5:00 AM5 °FLight snow. Mostly cloudy.9 mph78%29.96 "Hg9 mi
4:00 AM3 °FLight snow. Mostly cloudy.10 mph85%29.95 "Hg9 mi
3:00 AM7 °FLight snow. Overcast.7 mph78%29.93 "Hg9 mi
2:00 AM7 °FLight snow. Overcast.6 mph78%29.92 "Hg9 mi
1:00 AM7 °FLight snow. Overcast.6 mph78%29.91 "Hg9 mi
12:00 AM7 °FLight snow. Overcast.7 mph85%29.91 "Hg2 mi
11:00 PM
Jan 27
7 °FLight snow. Overcast.7 mph78%29.91 "Hg3 mi
10:00 PM7 °FLight snow. Overcast.8 mph85%29.90 "Hg1 mi
9:00 PM7 °FLight snow. Overcast.7 mph85%29.91 "Hg1 mi
8:48 PM7 °FLight snow. Overcast.8 mph85%29.91 "Hg2 mi
8:02 PM7 °FLight snow. Overcast.6 mph78%29.91 "Hg3 mi
7:00 PM7 °FLight snow. Overcast.9 mph78%29.92 "Hg2 mi
Weather by CustomWeather, © 2014

See weather overviewHow to use our weather pages